Theta_e
347 346 342 343 343 341 340 335 328 321 315 320 318 320 320 319 311 314 319 306 304 303 302 303 304 306 308 309 310 313 320 323 323 322 321 321 321 319
344 343 342 341 339 339 337 334 331 327 320 317 315 315 315 316 310 317 317 307 303 302 301 301 302 304 305 306 308 309 315 318 318 318 319 319 319 316
342 340 340 340 337 334 333 332 329 327 322 310 313 314 312 310 310 315 309 315 307 301 300 300 299 299 301 302 304 307 311 312 313 314 315 315 312 307
339 337 336 333 334 333 331 329 326 325 317 310 311 309 310 310 311 312 312 313 313 301 300 300 300 300 300 300 301 303 305 305 306 306 306 306 306 306
339 334 333 331 329 324 325 322 319 313 315 310 306 307 308 309 311 312 311 311 308 302 302 300 299 299 299 299 300 300 300 300 300 300 301 302 304 306
336 336 333 331 326 320 316 314 312 311 311 309 307 307 308 312 312 308 309 309 308 306 299 299 299 299 298 298 298 299 299 299 298 298 298 297 299 301
318 318 318 315 309 311 314 312 312 311 310 310 309 307 306 307 308 310 309 303 301 304 304 305 306 304 303 300 299 298 297 297 298 298 298 297 296 297
311 308 304 301 298 295 295 296 306 311 309 306 308 306 310 309 308 307 302 299 297 303 302 301 304 301 302 303 297 296 296 296 297 297 297 297 296 295
309 305 302 301 302 301 293 293 293 293 298 315 311 307 306 306 309 305 303 302 303 303 304 296 299 297 299 299 296 296 295 295 295 295 295 295 294 293
306 305 305 303 303 304 303 298 295 296 298 305 309 309 309 309 308 305 305 302 300 301 302 293 293 291 293 297 295 295 295 295 294 294 294 293 292 292
297 297 297 296 293 296 296 291 289 288 289 291 291 291 290 293 296 304 296 297 292 291 295 294 289 288 289 289 294 294 294 294 293 293 292 291 291 290
290 290 291 291 290 292 293 290 288 288 288 289 289 293 295 296 292 299 300 295 295 289 291 291 288 290 287 289 290 292 294 292 292 292 291 291 290 288
290 288 288 289 291 292 292 289 288 288 287 288 289 290 291 293 295 299 300 297 294 293 293 294 289 290 293 288 287 289 290 290 290 290 291 291 290 289
289 289 287 289 290 290 289 288 288 287 288 288 288 289 290 290 291 291 289 291 293 291 297 296 291 290 290 288 286 287 288 289 289 288 288 289 289 290
289 288 288 289 288 287 287 287 287 288 287 287 287 288 289 292 289 288 289 290 288 289 290 290 293 291 291 290 290 286 285 286 287 287 287 286 286 287
287 288 288 287 288 287 288 288 292 290 290 291 293 293 293 292 291 292 290 290 289 289 289 290 290 291 288 289 289 286 287 285 286 286 286 286 287 288
288 288 288 288 289 289 292 290 292 294 293 294 294 294 293 293 292 293 291 289 287 288 290 291 289 290 290 287 286 287 286 287 286 286 285 284 286 288
289 287 286 287 289 290 292 293 294 291 294 295 295 294 293 293 292 292 291 289 287 288 288 290 288 286 285 286 289 286 287 287 286 286 286 284 284 287
289 288 287 288 290 292 292 293 294 295 295 295 293 293 293 293 291 290 290 289 287 288 289 290 288 285 283 282 288 288 287 288 287 286 286 286 286 286
290 288 287 288 291 293 293 293 294 295 294 293 293 293 292 290 289 288 288 288 287 287 287 288 288 287 284 284 287 290 287 290 288 286 286 288 289 287
289 290 292 292 293 293 294 295 293 292 292 292 290 289 289 288 287 287 287 286 287 287 287 287 289 288 291 289 285 287 289 286 289 288 288 287 285 284
289 289 291 292 293 293 293 290 291 290 289 288 289 289 288 288 287 287 287 286 286 288 288 290 292 292 289 287 285 287 288 290 286 286 288 288 287 283
288 290 292 292 292 291 290 291 290 289 289 288 288 288 286 287 288 287 287 287 287 287 288 288 290 291 289 288 286 287 288 286 286 284 285 284 283 283
Wind_Speed
13 13 10 8 6 6 5 4 5 5 5 4 4 5 3 5 6 6 9 9 6 3 2 4 7 9 11 12 13 13 13 8 11 9 9 13 11 13
9 10 9 7 6 6 6 5 5 7 6 2 2 3 5 4 7 4 7 10 7 5 8 7 8 10 10 11 11 14 11 7 10 10 10 9 9 10
10 10 10 9 6 5 6 5 6 6 7 1 2 3 3 8 4 4 5 5 6 7 8 8 10 12 10 9 9 10 9 8 6 4 6 10 9 6
10 9 10 6 9 7 6 7 6 4 3 4 2 1 1 5 4 4 3 3 1 6 4 7 10 12 12 9 7 6 5 9 12 15 15 11 7 4
10 10 9 8 8 4 5 5 3 3 3 4 2 2 3 2 4 5 4 3 1 1 2 4 9 9 10 9 1 10 13 13 13 12 9 10 8 8
9 9 8 9 8 7 5 6 5 5 5 7 5 3 2 5 3 5 4 0 1 2 4 3 4 7 9 9 10 8 13 14 12 10 9 9 9 13
5 5 3 3 7 7 6 7 9 6 5 6 4 3 2 3 4 1 1 3 0 1 0 2 1 2 3 6 7 10 10 10 12 9 8 8 10 11
8 7 7 12 12 13 13 11 5 8 6 4 3 4 5 6 4 4 3 2 2 4 3 2 0 2 2 2 5 7 9 10 9 8 7 9 9 5
10 9 7 6 11 11 13 14 12 12 4 7 5 5 6 5 6 6 6 6 3 4 2 1 1 1 1 1 1 5 5 7 7 7 7 9 10 10
10 11 11 9 8 10 11 8 7 7 8 5 4 6 4 4 4 5 4 1 3 2 2 3 1 1 0 1 3 6 8 8 9 9 10 10 11 11
8 8 9 8 8 14 11 11 7 5 7 10 11 11 10 10 7 4 2 2 2 2 3 1 1 1 1 1 2 7 9 9 10 10 11 12 12 12
6 6 9 9 10 9 9 9 9 5 6 4 4 6 4 3 0 2 5 5 3 1 2 4 2 3 2 1 2 1 3 9 11 13 14 16 16 5
8 6 5 12 11 11 8 5 5 9 6 6 4 3 2 2 3 3 3 2 3 7 4 4 3 3 3 2 2 2 3 3 3 7 15 16 15 10
11 7 8 14 13 14 7 11 14 9 5 4 3 1 1 1 1 1 1 3 4 2 4 7 3 5 4 3 3 3 4 4 4 5 5 9 15 12
9 10 15 15 15 9 12 12 7 6 5 3 3 3 3 3 1 2 3 3 4 3 3 2 3 3 3 3 2 4 3 5 5 5 6 7 7 5
17 11 10 10 7 7 7 6 4 5 5 6 6 7 6 5 5 4 3 4 3 3 6 6 6 6 5 5 4 4 4 5 6 6 6 6 7 8
16 10 8 7 7 6 6 6 6 7 6 5 5 5 6 6 5 5 4 4 5 5 4 4 6 7 5 3 5 4 6 4 7 7 7 7 8 8
11 11 9 7 7 7 7 7 5 5 6 6 6 6 6 6 5 5 3 4 5 6 6 4 3 2 2 3 7 4 5 5 5 8 7 8 8 8
10 8 8 7 5 5 6 6 7 7 8 6 6 5 4 4 3 5 4 5 5 6 5 5 5 4 6 8 4 19 7 6 7 8 9 8 8 9
8 9 8 7 7 7 6 4 5 4 5 6 5 3 2 4 5 4 5 6 5 5 5 5 6 6 8 6 5 4 22 8 7 8 9 8 4 6
7 7 8 8 6 5 5 4 4 1 1 1 3 2 2 4 5 4 5 6 6 6 7 7 7 10 7 3 4 4 3 21 8 9 7 8 6 6
7 4 7 6 5 4 4 5 3 4 5 6 5 3 3 5 6 7 6 6 6 8 8 7 6 5 7 8 7 6 5 6 13 7 8 7 6 9
3 4 5 5 3 2 2 5 5 4 4 2 3 5 5 6 7 6 7 7 7 8 8 6 6 6 7 8 7 7 9 7 7 7 4 9 9 10
Wind_Direction
221 224 228 235 236 239 239 218 240 245 227 200 205 205 155 153 144 178 170 166 165 105 14 16 294 305 301 298 296 297 273 228 190 185 193 217 215 198
218 216 220 223 223 226 226 219 210 231 251 164 151 165 145 163 164 196 135 159 138 81 38 358 339 319 321 307 291 281 256 202 193 188 214 217 185 188
203 211 217 213 216 209 209 217 220 217 238 115 84 167 149 137 168 153 173 177 121 71 45 12 10 357 338 316 293 265 230 203 211 188 149 129 132 119
200 197 212 204 218 214 208 215 214 198 154 142 106 108 115 134 151 147 112 100 97 81 56 33 25 7 350 339 312 248 154 125 117 115 114 114 110 148
195 193 200 196 205 176 189 189 161 127 121 131 110 109 82 202 161 144 143 131 96 172 236 76 53 16 16 15 90 121 110 108 107 105 119 135 149 117
191 195 195 199 193 172 158 151 137 132 131 136 135 151 153 169 190 135 157 146 236 138 82 82 46 63 49 57 70 87 117 115 108 113 115 121 130 131
109 109 114 136 159 160 152 153 143 135 138 140 128 110 112 148 179 167 127 96 304 294 280 254 343 41 61 53 83 97 104 115 126 136 132 129 130 133
140 124 118 107 94 96 92 84 119 149 141 133 150 177 160 139 164 155 109 170 230 207 204 179 283 88 76 37 87 143 139 142 151 164 144 133 125 113
143 137 119 125 126 122 106 97 82 76 86 176 144 162 161 166 145 155 177 210 218 145 206 280 290 169 36 37 165 186 171 166 160 157 156 148 138 131
140 144 144 148 141 135 118 100 80 62 36 31 113 99 84 134 173 168 202 214 57 66 9 273 165 140 68 284 190 197 177 164 160 160 155 146 139 137
128 136 135 131 144 133 128 123 105 80 62 66 71 66 51 44 37 140 110 138 167 213 210 182 165 84 300 216 300 213 196 185 174 161 144 134 128 119
95 80 97 121 120 121 127 145 125 132 118 96 75 75 92 143 124 245 181 208 209 270 211 184 141 148 263 200 180 246 195 201 176 159 153 149 142 132
131 121 108 120 130 121 134 168 141 132 111 101 100 91 79 89 188 228 244 219 218 240 148 188 175 189 239 151 218 185 168 149 154 169 169 167 161 156
142 134 133 135 128 125 132 123 110 110 114 112 110 126 170 186 194 225 244 273 291 276 169 210 194 204 213 197 200 184 201 180 160 171 171 175 180 190
125 137 135 125 117 104 120 119 118 118 118 132 172 199 209 193 197 196 227 234 253 258 242 248 215 203 226 214 191 173 150 195 184 174 173 178 183 176
118 132 128 118 111 119 132 156 155 150 162 191 197 191 184 183 203 208 217 200 225 244 208 215 228 227 227 233 217 168 180 177 185 193 188 183 182 183
123 127 128 134 143 158 172 189 199 178 198 216 214 200 203 208 209 207 213 230 242 254 227 192 210 233 232 203 226 201 187 192 182 180 178 191 194 188
130 141 144 156 166 171 191 191 201 197 209 203 205 208 218 220 225 218 197 230 252 256 243 219 163 158 198 247 219 217 209 199 170 180 186 197 201 193
137 144 146 157 157 176 201 200 195 201 199 214 213 229 235 252 240 251 261 234 234 255 249 234 187 190 227 245 189 204 209 200 178 183 189 203 207 188
140 142 144 152 187 200 198 192 210 189 198 215 225 242 303 265 250 249 244 244 249 248 252 247 218 201 219 247 258 205 211 204 189 190 191 204 200 160
137 148 146 171 192 205 179 168 105 141 86 274 234 198 171 251 256 255 255 238 250 246 250 247 235 216 213 202 224 232 198 222 199 189 188 194 179 160
130 170 144 172 182 188 127 123 144 183 217 228 228 226 205 232 246 239 238 249 249 248 251 252 245 192 202 218 238 232 203 187 220 249 198 187 176 191
137 183 152 160 137 145 167 163 194 216 210 192 224 220 198 224 235 239 243 238 240 252 261 257 256 244 235 224 226 240 246 181 184 185 193 139 96 66